Home > Weather > Nouadhibou > Past weeks

Flag for Mauritania Weather for the Past 2 Weeks in Nouadhibou, Mauritania

Now
66 °F

Clear.


Feels Like: 66 °F
Forecast: N/A
Wind: 17 mph from Northwest

Location: Nouadhibou Airport

Current Time: May 1, 2016 at 10:27:00 PM

Latest Report: May 1, 2016 at 9:00 PM


Visibility: 5 mi

Pressure: 29.92 "Hg

Humidity: 78%

Dew Point: 59 °F

Location of NouadhibouLocation

Historic Weather in Nouadhibou — Graph

°F

Nouadhibou Temperature Yesterday

Maximum temperature yesterday: 75 °F (at 11:00 AM)
Minimum temperature yesterday: 63 °F (at 3:00 AM)
Average temperature yesterday: 67 °F

High & Low Weather Summary for the Past Weeks

 TemperatureHumidityPressure
High84 °F (Apr 20, 2:00 PM)94% (Apr 28, 1:00 AM)30.04 "Hg (Apr 28, 1:00 AM)
Low63 °F (Apr 25, 1:00 AM)29% (Apr 22, 11:00 AM)29.83 "Hg (Apr 23, 5:00 PM)
Average69 °F72%29.93 "Hg
* Reported Apr 16 8:00 PM — May 1 8:00 PM, Nouadhibou, Weather by CustomWeather, © 2016

Note: Actual official high and low records may vary slightly from our data, if they occured in-between our weather recording intervals... More about our weather records

Advertising

Nouadhibou Weather History for the Previous 24 Hours

Scroll right to see more
 ConditionsComfort  
Time TempWeatherWind HumidityBarometerVisibility
8:00 PM
Sun, May 1
66 °FClear.17 mph78%29.92 "Hg4 mi
7:00 PM68 °FClear.20 mph73%29.89 "Hg4 mi
6:00 PM70 °FClear.21 mph69%29.89 "Hg4 mi
5:00 PM72 °FClear.21 mph65%29.89 "Hg4 mi
4:00 PM73 °FClear.18 mph61%29.89 "Hg4 mi
3:00 PM75 °FClear.18 mph57%29.89 "Hg4 mi
2:00 PM79 °FClear.15 mph51%29.92 "Hg5 mi
1:00 PM84 °FClear.24 mph33%29.92 "Hg5 mi
12:00 PM81 °FClear.24 mph42%29.95 "Hg5 mi
11:00 AM79 °FClear.24 mph45%29.95 "Hg5 mi
10:00 AM73 °FClear.25 mph57%29.95 "Hg5 mi
9:00 AM70 °FClear.25 mph64%29.95 "Hg5 mi
8:00 AM66 °FClear.20 mph73%29.92 "Hg5 mi
7:00 AM64 °FClear.20 mph78%29.89 "Hg5 mi
6:00 AM66 °FClear.18 mph78%29.89 "Hg5 mi
5:00 AM66 °FClear.17 mph78%29.89 "Hg5 mi
4:00 AM66 °FClear.20 mph78%29.86 "Hg5 mi
3:00 AM66 °FClear.18 mph78%29.89 "Hg5 mi
2:00 AM66 °FClear.17 mph78%29.92 "Hg5 mi
1:00 AM66 °FClear.17 mph78%29.92 "Hg5 mi
12:00 AM66 °FClear.18 mph78%29.92 "Hg5 mi
11:00 PM
Sat, Apr 30
68 °FClear.20 mph73%29.95 "Hg5 mi
10:00 PM66 °FClear.17 mph78%29.92 "Hg5 mi
Weather by CustomWeather, © 2016

See weather overviewHow to use our weather pages